Vorticity
5 7 7 8 9 9 10 11 9 5 7 7 12 6 4 3 5 8 10 8 7 6 6 6 8 7 9 8 9 7 7 6 9 9 9 9 12 7 11 14 10 8 8 9 7
15 15 15 13 12 12 10 9 7 5 6 8 7 5 4 7 9 6 3 6 5 6 6 6 7 7 10 11 10 8 10 9 8 6 6 5 10 10 13 12 10 7 7 4 4
8 9 10 11 9 8 8 8 5 5 6 5 4 5 9 7 6 4 4 6 5 2 6 7 8 8 8 8 6 8 9 9 5 9 7 9 10 14 10 12 7 6 4 5 1
4 5 4 8 11 12 12 11 9 8 6 6 7 7 5 1 4 6 5 2 3 5 1 6 8 10 7 8 8 8 9 10 9 9 7 9 7 12 14 9 2 3 2 7 3
6 7 5 5 6 9 10 8 7 7 8 7 5 4 4 4 2 4 6 6 6 5 5 3 8 10 7 8 6 7 8 10 10 10 9 10 8 10 10 9 1 2 1 2 4
3 7 6 6 4 4 6 5 8 5 4 3 3 2 3 5 5 5 4 5 5 8 3 4 7 11 5 6 6 8 9 6 12 10 9 6 7 7 11 11 14 5 4 4 4
4 5 11 8 5 5 3 4 2 3 3 3 3 4 4 2 4 4 2 3 6 7 3 6 6 10 5 4 6 6 8 7 10 12 7 8 7 7 10 12 13 4 5 4 4
6 3 10 6 3 5 4 3 3 4 4 2 3 3 4 4 3 5 4 3 5 5 2 7 7 8 5 5 5 8 9 8 8 11 5 8 9 7 8 11 13 9 8 3 3
5 3 5 7 4 5 3 2 3 4 4 5 3 4 5 3 4 4 4 4 7 3 -2 7 10 7 3 4 5 4 7 10 11 7 9 12 13 11 8 9 9 8 6 5 4
6 5 4 6 7 5 4 5 5 8 5 3 5 6 5 4 4 3 4 4 6 3 -4 7 11 7 3 1 5 6 8 5 8 7 10 8 13 10 7 7 8 8 8 8 7
6 6 7 3 3 2 3 3 5 -0 8 11 4 4 3 3 4 5 4 4 7 4 -2 5 12 7 4 2 6 6 7 6 6 9 14 9 13 12 8 7 6 8 7 6 3
6 5 4 4 4 5 5 4 3 2 3 8 4 4 4 3 6 5 4 4 8 5 -2 6 11 5 4 5 5 5 6 5 4 10 17 12 9 12 11 8 9 7 8 6 4
2 1 2 3 3 3 2 4 4 4 3 5 5 6 5 6 4 5 4 4 8 6 -2 7 8 6 5 8 4 3 4 7 7 14 11 12 13 10 11 11 11 6 9 9 7
4 5 5 4 3 4 3 2 2 2 6 7 4 6 7 6 6 6 4 6 10 5 -1 5 8 7 5 4 4 3 6 7 10 9 15 13 10 11 11 14 6 8 9 7 5
2 3 3 3 2 2 2 3 3 4 -4 5 6 3 6 6 5 4 6 7 8 5 3 1 10 5 2 2 6 1 5 8 11 10 13 9 18 6 8 14 9 9 13 6 8
10 10 10 9 8 7 5 4 3 4 8 4 3 7 5 7 7 6 5 6 9 5 4 3 10 2 4 2 5 6 6 5 5 10 14 10 10 16 10 9 10 9 9 6 15
5 4 5 5 6 6 9 11 7 6 5 3 6 4 6 7 6 5 3 5 11 7 3 6 7 4 6 1 6 8 6 4 4 3 9 9 10 9 5 10 9 9 12 9 13
4 5 4 4 4 4 5 8 6 7 6 6 5 5 6 7 5 4 3 8 9 7 3 3 8 7 4 4 3 8 4 3 3 0 5 13 6 8 12 7 6 8 7 10 9
5 5 7 7 5 5 7 6 7 7 4 5 5 4 6 5 5 4 4 8 8 6 4 5 8 8 3 4 6 6 8 2 4 -1 5 10 12 15 8 7 7 2 10 11 11
6 7 6 5 6 6 5 6 6 6 5 4 4 4 5 4 5 4 5 8 7 5 3 4 7 5 4 3 0 4 9 7 6 3 3 14 6 16 12 9 2 10 10 9 6
5 4 6 5 5 5 5 5 5 4 5 5 4 4 4 4 5 5 5 8 7 3 4 5 8 4 6 5 4 4 7 7 5 7 1 10 7 17 17 10 10 9 9 7 5
7 5 3 3 4 5 4 5 5 4 5 4 4 5 5 6 5 5 8 9 9 5 5 4 4 6 2 3 3 5 8 6 2 4 7 11 8 11 7 8 7 7 7 7 8
3 6 6 4 3 3 4 4 4 5 3 3 4 5 5 5 7 6 9 6 5 6 3 2 5 7 5 5 3 -0 14 7 6 9 16 2 15 9 7 4 5 9 9 10 7
4 4 5 6 6 3 3 4 6 5 5 6 6 8 6 6 6 6 7 7 6 2 6 -0 9 2 8 6 -0 8 18 8 9 10 13 9 8 14 2 2 9 7 10 4 2
4 4 5 4 4 2 3 6 5 6 5 6 7 5 6 10 5 6 7 5 3 3 2 4 4 2 4 9 8 10 11 15 17 15 3 21 -0 11 4 4 6 1 7 2 2
5 3 4 6 7 6 5 8 9 7 8 2 6 5 6 11 4 9 9 7 5 4 3 2 2 -0 10 14 6 1 22 8 18 24 5 4 7 -0 4 5 10 7 3 8 8
3 5 -1 -0 10 9 6 2 10 7 2 9 8 7 10 7 6 6 5 6 5 3 9 6 10 13 12 9 0 8 10 18 7 8 14 10 3 6 8 8 1 2 0 2 6
Height
5856 5856 5856 5856 5856 5856 5855 5855 5855 5855 5855 5855 5854 5853 5853 5852 5851 5849 5848 5846 5844 5842 5841 5838 5835 5831 5827 5824 5822 5817 5815 5811 5808 5805 5802 5797 5795 5792 5790 5789 5787 5784 5783 5781 5779
5858 5858 5858 5858 5858 5857 5857 5857 5857 5857 5857 5857 5856 5856 5855 5854 5852 5850 5848 5847 5846 5844 5841 5838 5834 5831 5828 5824 5821 5818 5815 5810 5808 5804 5800 5796 5793 5790 5788 5786 5784 5783 5780 5778 5776
5861 5861 5861 5861 5860 5860 5860 5860 5860 5859 5859 5859 5858 5858 5857 5855 5854 5851 5850 5849 5848 5845 5842 5838 5834 5831 5828 5824 5821 5817 5814 5809 5806 5801 5799 5795 5791 5788 5785 5784 5782 5780 5778 5776 5773
5865 5864 5864 5863 5862 5862 5862 5862 5862 5862 5861 5861 5860 5859 5858 5857 5856 5853 5852 5851 5849 5846 5842 5838 5835 5832 5828 5824 5820 5817 5813 5809 5805 5801 5797 5793 5790 5787 5784 5782 5780 5777 5775 5772 5770
5868 5867 5866 5866 5865 5865 5864 5864 5864 5864 5863 5862 5862 5861 5860 5859 5857 5855 5853 5852 5849 5846 5843 5838 5835 5832 5828 5824 5820 5816 5812 5807 5803 5799 5795 5792 5787 5785 5782 5780 5778 5775 5773 5770 5766
5871 5870 5869 5869 5868 5868 5868 5867 5867 5866 5865 5864 5863 5862 5861 5859 5857 5855 5853 5851 5848 5845 5842 5839 5835 5832 5828 5824 5819 5814 5810 5806 5801 5797 5792 5789 5786 5783 5779 5775 5774 5772 5769 5766 5763
5873 5873 5872 5871 5871 5871 5870 5870 5869 5868 5867 5865 5864 5863 5862 5860 5858 5856 5853 5850 5848 5845 5842 5838 5834 5831 5827 5823 5819 5814 5810 5804 5800 5795 5791 5787 5784 5780 5777 5773 5770 5768 5765 5763 5760
5875 5875 5875 5874 5873 5873 5872 5871 5871 5870 5868 5866 5865 5864 5862 5860 5858 5856 5853 5850 5846 5844 5841 5837 5833 5829 5825 5822 5818 5813 5809 5804 5798 5793 5789 5785 5780 5777 5774 5770 5768 5765 5764 5760 5756
5877 5876 5876 5875 5875 5874 5873 5872 5871 5870 5869 5867 5866 5864 5863 5860 5858 5855 5852 5849 5846 5843 5840 5835 5832 5828 5825 5821 5817 5812 5806 5802 5797 5791 5786 5782 5779 5774 5770 5767 5765 5762 5760 5757 5754
5878 5877 5876 5876 5875 5874 5873 5872 5871 5870 5869 5867 5866 5865 5863 5860 5857 5854 5851 5848 5845 5842 5838 5834 5830 5826 5822 5817 5815 5810 5806 5799 5795 5790 5782 5779 5775 5771 5768 5765 5761 5758 5756 5752 5749
5878 5878 5877 5876 5875 5874 5874 5872 5872 5871 5868 5867 5865 5863 5861 5859 5856 5853 5850 5846 5843 5839 5836 5832 5828 5824 5820 5816 5812 5807 5803 5798 5791 5788 5781 5775 5772 5768 5765 5761 5758 5755 5752 5749 5747
5878 5877 5877 5876 5875 5874 5873 5871 5870 5870 5867 5865 5863 5862 5860 5857 5855 5852 5849 5846 5841 5837 5834 5831 5827 5823 5818 5813 5808 5804 5800 5795 5791 5784 5779 5771 5767 5764 5760 5757 5754 5750 5748 5745 5742
5877 5876 5876 5875 5874 5873 5872 5870 5869 5867 5866 5864 5862 5860 5858 5855 5852 5849 5846 5842 5839 5835 5831 5827 5824 5819 5815 5810 5805 5800 5796 5791 5787 5781 5774 5768 5764 5760 5756 5752 5749 5747 5744 5740 5737
5875 5875 5874 5873 5873 5871 5870 5868 5867 5865 5864 5863 5860 5858 5856 5852 5850 5846 5843 5841 5836 5832 5828 5825 5820 5815 5812 5808 5804 5798 5793 5787 5783 5777 5772 5765 5761 5755 5751 5747 5745 5742 5739 5735 5731
5872 5872 5871 5871 5869 5868 5868 5866 5864 5862 5861 5860 5857 5855 5852 5850 5847 5843 5840 5836 5832 5828 5825 5821 5816 5812 5809 5805 5800 5795 5788 5783 5778 5774 5768 5763 5756 5751 5746 5742 5739 5737 5734 5729 5724
5869 5868 5868 5867 5866 5865 5864 5862 5861 5860 5857 5855 5853 5850 5848 5844 5842 5839 5836 5833 5829 5825 5821 5817 5813 5809 5804 5800 5795 5790 5785 5779 5773 5768 5765 5758 5752 5748 5741 5736 5732 5730 5727 5722 5718
5865 5865 5864 5863 5862 5860 5859 5858 5857 5854 5854 5851 5848 5845 5843 5840 5837 5834 5831 5827 5824 5821 5817 5813 5808 5804 5800 5796 5790 5785 5779 5774 5769 5763 5759 5754 5749 5742 5736 5731 5726 5721 5718 5715 5712
5861 5860 5859 5858 5857 5856 5855 5854 5852 5850 5848 5846 5843 5840 5838 5836 5832 5829 5826 5823 5819 5816 5812 5809 5805 5799 5793 5789 5784 5779 5774 5768 5762 5758 5754 5747 5743 5737 5731 5725 5719 5715 5711 5708 5705
5856 5855 5855 5853 5852 5851 5851 5849 5847 5845 5843 5840 5838 5835 5833 5830 5827 5824 5820 5817 5813 5809 5806 5801 5799 5793 5788 5783 5778 5772 5769 5764 5757 5752 5746 5741 5736 5729 5723 5717 5712 5707 5704 5700 5695
5849 5849 5849 5848 5847 5846 5845 5843 5841 5839 5837 5834 5832 5830 5826 5824 5821 5817 5814 5810 5806 5803 5798 5795 5791 5788 5782 5777 5771 5766 5762 5756 5751 5743 5739 5734 5729 5723 5715 5710 5704 5699 5696 5691 5685
5843 5842 5842 5841 5841 5839 5838 5837 5835 5832 5830 5828 5825 5823 5820 5817 5814 5810 5807 5803 5799 5795 5791 5787 5783 5782 5774 5770 5764 5759 5753 5748 5742 5735 5727 5722 5721 5714 5706 5702 5695 5691 5685 5680 5674
5837 5836 5835 5834 5835 5832 5831 5829 5828 5825 5822 5820 5818 5815 5812 5809 5806 5803 5799 5794 5791 5787 5783 5778 5774 5771 5766 5761 5756 5749 5743 5738 5732 5726 5718 5712 5715 5706 5697 5692 5687 5682 5676 5671 5665
5829 5829 5827 5826 5825 5824 5823 5821 5819 5817 5814 5812 5809 5807 5804 5801 5797 5793 5790 5786 5783 5778 5774 5769 5765 5760 5756 5752 5746 5739 5732 5728 5720 5713 5712 5700 5701 5694 5689 5681 5677 5672 5666 5660 5654
5820 5820 5820 5818 5816 5815 5814 5813 5811 5809 5805 5803 5801 5798 5794 5792 5788 5782 5780 5777 5773 5770 5766 5760 5757 5754 5748 5743 5737 5731 5725 5718 5707 5700 5697 5692 5690 5686 5677 5671 5667 5661 5655 5649 5643
5810 5810 5809 5809 5807 5805 5804 5803 5801 5798 5796 5794 5792 5789 5785 5782 5779 5773 5772 5768 5764 5760 5756 5750 5746 5743 5738 5733 5726 5717 5715 5709 5697 5692 5680 5687 5675 5677 5668 5663 5657 5651 5645 5639 5632
5798 5799 5799 5798 5797 5795 5794 5794 5791 5788 5785 5784 5782 5777 5775 5774 5768 5764 5760 5758 5755 5750 5745 5738 5732 5727 5727 5721 5714 5706 5706 5697 5689 5682 5671 5668 5669 5661 5656 5651 5645 5639 5633 5626 5621
5787 5786 5785 5787 5785 5784 5785 5781 5780 5777 5775 5772 5770 5767 5765 5762 5758 5754 5751 5748 5744 5740 5733 5724 5717 5711 5710 5706 5700 5698 5693 5686 5679 5670 5662 5656 5652 5646 5643 5638 5632 5626 5619 5612 5605